Location: Newark
(42.9858°N, 0.6717°E)
Time: 10:18:53
(UTC+00:00)

S-56A Canister/Altair - Pass Details

Date: 29 November 2019
Orbit: 633 x 2500 km, 38.9° (Epoch: 09 December)

Event Time Altitude Azimuth Distance (km) Brightness Sun altitude
Rises 13:52:00 0° 239° (WSW) 6,158 13.2 19.3°
Reaches altitude 10° 13:56:15 10° 236° (WSW) 5,081 13.1 18.9°
Maximum altitude 14:10:12 60° 162° (SSE) 2,272 10.5 17.4°
Drops below altitude 10° 14:20:19 10° 86° (E) 3,779 10.7 16.3°
Sets 14:23:00 0° 83° (E) 4,536 11.1 16.1°
